Regional Weather Roundup
Issued by NWS

Home | Current Version | Previous Version | Graphics & Text | Print | Product List | Glossary On
Versions: 1 2 3 4 5 6 7 8 9 10 11 12 13 14 15 16 17 18 19 20 21 22 23 24 25 26 27 28 29 30 31 32 33 34 35 36 37 38 39 40 41 42 43 44 45 46 47 48 49 50
000
ASUS43 KDTX 182010
RWRMI
MICHIGAN HOURLY REGIONAL WEATHER ROUNDUP
NATIONAL WEATHER SERVICE DETROIT/PONTIAC MI
ISSUED BY NATIONAL WEATHER SERVICE GRAND RAPIDS MI
300 PM EST WED JAN 18 2017

NOTE: "FAIR" INDICATES FEW OR NO CLOUDS BELOW 12,000 FEET WITH NO
SIGNIFICANT WEATHER AND/OR OBSTRUCTION TO VISIBILITY.

MIZ047>049-052>055-059>063-066>070-074>076-081>083-182100-
SOUTHEAST LOWER MICHIGAN

CITY           SKY/WX    TMP DP  RH WIND       PRES   REMARKS
ADRIAN         CLOUDY    38  36  92 W12       30.06S WCI  30
ALMA           CLOUDY    38  36  93 SW8       30.03R WCI  32
ANN ARBOR      CLOUDY    40  37  89 SW10      30.04S WCI  33
BAD AXE        CLOUDY    35  35 100 W12G17    30.00S FOG     WCI  26
DETROIT CITY   CLOUDY    41  37  87 W10       30.03F
DETROIT        CLOUDY    42  37  82 W10       30.05S
FLINT          CLOUDY    38  36  92 NW10G18   30.03S WCI  31
GROSSE ILE     CLOUDY    41  36  84 W9        30.04R
HILLSDALE      CLOUDY    34  34 100 SW8       30.04S FOG     WCI  27
HOWELL         CLOUDY    38  35  90 W12       30.03R WCI  30

CITY           SKY/WX    TMP DP  RH WIND       PRES   REMARKS
JACKSON        CLOUDY    38  35  89 W10       30.04R WCI  31
LANSING        CLOUDY    38  34  85 SW10      30.03S WCI  31
MASON          CLOUDY    38  36  94 W3        30.04R
MONROE         CLOUDY    41  38  89 W9        30.04F
MT. CLEMENS    CLOUDY    41  38  89 W10       30.01R
PONTIAC        CLOUDY    38  35  89 W8        30.00S WCI  32
PORT HOPE        N/A     36  34  92 W9        29.97S WCI  29
PORT HURON     CLOUDY    39  36  87 W3        30.02S
TRI CITIES     CLOUDY    38  36  92 W12       30.01S WCI  30
YPSILANTI      CLOUDY    42  38  85 W10       30.05S
$$
MIZ043>046-050>051-056>058-064>065-071>073-077>080-182100-
SOUTHWEST LOWER MICHIGAN

CITY           SKY/WX    TMP DP  RH WIND       PRES   REMARKS
BATTLE CREEK   CLOUDY    37  35  92 SW13      30.05S WCI  29
BENTON HARBOR  CLOUDY    37  34  89 SW10      30.07S FOG     WCI  30
BIG RAPIDS     CLOUDY    36  34  91 SW9       29.98F WCI  29
COLDWATER      CLOUDY    35  35 100 SW12      30.06S FOG     WCI  27
HOLLAND        CLOUDY    37  34  89 SW13      30.05S WCI  29
GRAND RAPIDS   CLOUDY    37  34  89 SW12      30.03S WCI  29
KALAMAZOO      CLOUDY    36  33  89 SW12      30.06S FOG     WCI  28
MARSHALL       CLOUDY    37  35  94 SW12      30.05R WCI  29
MOUNT PLEASANT CLOUDY    38  36  91 W7        29.99F WCI  33
MUSKEGON       CLOUDY    37  35  92 SW12      30.04R WCI  29
STURGIS        CLOUDY    34  34  99 SW15      30.06S FOG     WCI  24
$$
MIZ016>042-182100-
NORTHERN LOWER MICHIGAN

CITY           SKY/WX    TMP DP  RH WIND       PRES   REMARKS
ALPENA         SUNNY     41  33  73 SW10      29.91F
BEAVER ISLAND  CLOUDY    35  33  94 SW16G25   29.85F WCI  25
BELLAIRE       CLOUDY    38  34  87 SW6       29.92F WCI  33
CADILLAC       CLOUDY    35  33  94 SW10      29.93F WCI  27
CHARLEVOIX     PTSUNNY   37  34  88 SW13G21   29.91F WCI  29
GAYLORD        SUNNY     40  32  73 SW16      29.88F WCI  31
HOUGHTON LAKE  PTSUNNY   37  33  85 SW9       29.94F WCI  30
MANISTEE       CLOUDY    36  34  92 S10       29.96F WCI  28
OSCODA         CLOUDY    39  36  88 SW10      29.95F WCI  32
PELLSTON       CLOUDY    38  32  79 SW12      29.87F WCI  30
TRAVERSE CITY  CLOUDY    38  34  85 S9G17     29.91F WCI  31
LUDINGTON      CLOUDY    35  35 100 S13G20    29.98S FOG     WCI  26
$$
MIZ007>008-015-182100-
EASTERN UPPER MICHIGAN

CITY           SKY/WX    TMP DP  RH WIND       PRES   REMARKS
KINROSS        CLOUDY    35  33  92 SW13G20   29.83  WCI  26
MACKINAC ISLAN CLOUDY    34  34 100 SW8G16    29.85F WCI  27
NEWBERRY       CLOUDY    33  32  96 SW12G18   29.82S WCI  24
S. S. MARIE    CLOUDY    37  33  85 SW10G17   29.83S WCI  30
$$
MIZ004>006-011>014-085-182100-
CENTRAL UPPER MICHIGAN

CITY           SKY/WX    TMP DP  RH WIND       PRES   REMARKS
MANISTIQUE     CLOUDY    32  32  99 SW12G18   29.84S WCI  23
ESCANABA       SUNNY     36  32  85 S10       29.83F WCI  28
SAWYER-GWINN   SUNNY     39  28  65 SW7       29.78R WCI  34
$$
MIZ001>003-009>011-084-182100-
WESTERN UPPER MICHIGAN

CITY           SKY/WX    TMP DP  RH WIND       PRES   REMARKS
IRON MOUNTAIN  SUNNY     44  27  51 SW7       29.78F
HOUGHTON       SUNNY     39  26  59 W21       29.74R WCI  29
COPPER HARBOR    N/A     40  28  62 NW9G22    29.73F WCI  34
IRONWOOD       SUNNY     46  26  45 SW8       29.78R
$$

ABBREVIATIONS USED IN REMARKS
   TC - TEMPERATURE IN CELSIUS
  WCI - WIND CHILL INDEX
   HX - HEAT INDEX
  VSB - VISIBILITY




USA.gov is the U.S. government's official web portal to all federal, state and local government web resources and services.